STARLINK-5892, 55954

Orbit data source: Space-Track

STARLINK-5892, 55954 is a payload satellite owned by SpaceX/Seattle (US) in LEO that was launched on Fri, 17 Mar 2023 UTC via an FALCON 9 launch vehicle from the Air Force Western Test Range (AFWTR). Payload-class satellites include a variety of spacecraft equipped with specific instruments for various scientific and technological missions. These include communications satellites like Starlink; space stations such as the ISS; scientific satellites like the Hubble; Earth observation satellites from companies like Planet Labs, Umbra, and HawkEye 360; GPS; miniature CubeSats for education and research; and military/defense satellites.

Loading next visibility...
Identifier
55954, 2023-037AS
Orbit
LEO
Country
Flag of USUS
Related business
Manufacturer
SpaceX/Seattle
Mission
Operational Commercial Communications
Bus & Motor
STARLINK, Unknown motor
Mass
305 kg wet, ~290 kg dry
Launch date (UTC)
2023-03-17 (3 years ago)
Launch vehicle
FALCON 9
Launch site
Air Force Western Test Range (AFWTR)
Object type
Payload
Rocket body
Debris
Shape & HBR
Box + 1 Pan, 10.1 m
Radar Cross Section
11.087 m², Large (>1 m²)

Expand to show TLE details & history
Last TLE update: 20 hours ago

TLE from 20 hours ago
0 STARLINK-5892
1 55954U 23037AS  25348.76363175  .00001062  00000-0  96771-4 0  9996
2 55954  69.9994 118.5224 0003157 269.0617  91.0181 14.98329163151751
Epoch: 2025-12-14T18:19Z
TLE epoch observation values (Epoch: 2025-12-14T18:19:37.783Z)
Latitude
0.00005°
Longitude
119.94311°
Altitude
574.522 km
Speed
7.574 km/s
True Right ascension
07h 54m 05s
True Declination
0° 00' 00"
Sunlit
Object was in full shadow at epoch
Visualization orbit readout
Latitude
Unknown
Longitude
Unknown
Altitude
Unknown
Speed
Unknown
Apparent Right ascension
Unknown
Apparent Declination
Unknown
Sunlit
N/A
Visualization observer readout
Local Sidereal Time
13:19:01
Azimuth
Unknown
Elevation
Unknown
Doppler factor
Unknown
Orbital elements
Apogee altitude
572.2 km
Perigee altitude
567.813 km
Semi-major axis
6,948.144 km
Eccentricity
0.00032
Inclination
69.9994°
RAAN
118.5224°
Arg. of periapsis
269.0617°
True anomaly
91.05427°
Mean anomaly
91.0181°
Eccentric anomaly
91.03619°
Mean motion
3.74749 °/min
Orbital period
96.06 mins
BSTAR
0.000096771
Loading maneuver chart data...
Computing Atmospheric mass density...
Loading historical data...
Loading historical data...
Loading historical data...
Loading historical data...
Loading historical data...
Loading historical data...
Loading historical data...

Documentation

Showing up to 5 results
|